| time (UTC) | temp C | wind direction | speed KPH | gust KPH | rain 1hr cm | rain 24hr cm | rain mn cm | humidity % | barometer mb |
| 20260508054328 | 10 | 329 | 16.1 | 25.7 | 0.00 | 0.00 | 0.00 | 7 | 1013.2 |
| 20260508054229 | 10 | 329 | 16.1 | 25.7 | 0.00 | 0.00 | 0.00 | 7 | 1013.2 |
| 20260508053228 | 10 | 327 | 16.1 | 25.7 | 0.00 | 0.00 | 0.00 | 7 | 1013.2 |
| 20260508052336 | 10 | 323 | 19.3 | 29.0 | 0.00 | 0.00 | 0.00 | 6 | 1013.2 |
| 20260508052227 | 10 | 323 | 19.3 | 29.0 | 0.00 | 0.00 | 0.00 | 6 | 1013.2 |
| 20260508051302 | 10 | 318 | 19.3 | 30.6 | 0.00 | 0.00 | 0.00 | 6 | 1013.1 |
| 20260508051227 | 10 | 318 | 19.3 | 30.6 | 0.00 | 0.00 | 0.00 | 6 | 1013.1 |
| 20260508050301 | 10 | 319 | 19.3 | 27.4 | 0.00 | 0.00 | 0.00 | 6 | 1013.1 |
| 20260508050227 | 10 | 319 | 19.3 | 27.4 | 0.00 | 0.00 | 0.00 | 6 | 1013.1 |
| 20260508045306 | 10 | 315 | 19.3 | 29.0 | 0.00 | 0.00 | 0.00 | 6 | 1013.1 |
| 20260508045227 | 10 | 315 | 19.3 | 29.0 | 0.00 | 0.00 | 0.00 | 6 | 1013.1 |
| 20260508044317 | 10 | 317 | 17.7 | 35.4 | 0.00 | 0.00 | 0.00 | 5 | 1013.0 |
| 20260508044227 | 10 | 317 | 17.7 | 35.4 | 0.00 | 0.00 | 0.00 | 5 | 1013.0 |
| 20260508043301 | 10 | 319 | 17.7 | 29.0 | 0.00 | 0.00 | 0.00 | 5 | 1012.9 |
| 20260508043227 | 10 | 319 | 17.7 | 29.0 | 0.00 | 0.00 | 0.00 | 5 | 1012.9 |
| 20260508042227 | 10 | 324 | 19.3 | 27.4 | 0.00 | 0.00 | 0.00 | 5 | 1012.8 |
| 20260508041228 | 10 | 312 | 17.7 | 29.0 | 0.00 | 0.00 | 0.00 | 5 | 1012.7 |
| 20260508040302 | 10 | 316 | 17.7 | 30.6 | 0.00 | 0.00 | 0.00 | 4 | 1012.7 |
| 20260508040227 | 10 | 316 | 17.7 | 30.6 | 0.00 | 0.00 | 0.00 | 4 | 1012.7 |
| 20260508035325 | 10 | 316 | 16.1 | 30.6 | 0.00 | 0.00 | 0.00 | 4 | 1012.6 |
| 20260508035227 | 10 | 316 | 16.1 | 30.6 | 0.00 | 0.00 | 0.00 | 4 | 1012.6 |
| 20260508034310 | 11 | 310 | 24.1 | 33.8 | 0.00 | 0.00 | 0.00 | 4 | 1012.5 |
| 20260508034228 | 11 | 310 | 24.1 | 33.8 | 0.00 | 0.00 | 0.00 | 4 | 1012.5 |
| 20260508033303 | 11 | 310 | 20.9 | 32.2 | 0.00 | 0.00 | 0.00 | 4 | 1012.3 |
| 20260508033227 | 11 | 310 | 20.9 | 32.2 | 0.00 | 0.00 | 0.00 | 4 | 1012.3 |
| 20260508032306 | 11 | 309 | 19.3 | 27.4 | 0.00 | 0.00 | 0.00 | 3 | 1012.2 |
| 20260508032227 | 11 | 309 | 19.3 | 27.4 | 0.00 | 0.00 | 0.00 | 3 | 1012.2 |
| 20260508031326 | 11 | 301 | 19.3 | 27.4 | 0.00 | 0.00 | 0.00 | 3 | 1012.2 |
| 20260508031227 | 11 | 301 | 19.3 | 27.4 | 0.00 | 0.00 | 0.00 | 3 | 1012.2 |
| 20260508030302 | 11 | 310 | 17.7 | 29.0 | 0.00 | 0.00 | 0.00 | 3 | 1012.1 |
| 20260508030227 | 11 | 310 | 17.7 | 29.0 | 0.00 | 0.00 | 0.00 | 3 | 1012.1 |
| 20260508025227 | 11 | 311 | 19.3 | 29.0 | 0.00 | 0.00 | 0.00 | 3 | 1012.0 |
| 20260508024227 | 11 | 316 | 14.5 | 22.5 | 0.00 | 0.00 | 0.00 | 3 | 1012.0 |
| 20260508023228 | 11 | 312 | 14.5 | 22.5 | 0.00 | 0.00 | 0.00 | 4 | 1011.8 |
| 20260508022326 | 11 | 309 | 12.9 | 19.3 | 0.00 | 0.00 | 0.00 | 4 | 1011.7 |
| 20260508022227 | 11 | 309 | 12.9 | 19.3 | 0.00 | 0.00 | 0.00 | 4 | 1011.7 |
| 20260508021318 | 11 | 308 | 12.9 | 19.3 | 0.00 | 0.00 | 0.00 | 4 | 1011.7 |
| 20260508021227 | 11 | 308 | 12.9 | 19.3 | 0.00 | 0.00 | 0.00 | 4 | 1011.7 |
| 20260508020229 | 12 | 297 | 11.3 | 17.7 | 0.00 | 0.00 | 0.00 | 3 | 1011.8 |
| 20260508015227 | 12 | 303 | 6.4 | 14.5 | 0.00 | 0.00 | 0.00 | 1 | 1011.8 |
| 20260508014227 | 13 | 322 | 3.2 | 12.9 | 0.00 | 0.00 | 0.00 | 1 | 1011.8 |
| 20260508013228 | 13 | 325 | 8.0 | 14.5 | 0.00 | 0.00 | 0.00 | 2 | 1011.8 |
| 20260508012227 | 13 | 16 | 1.6 | 8.0 | 0.00 | 0.00 | 0.00 | 1 | 1011.8 |
| 20260508011227 | 13 | 322 | 3.2 | 11.3 | 0.00 | 0.00 | 0.00 | 1 | 1011.8 |
| 20260508010230 | 13 | 21 | 1.6 | 8.0 | 0.00 | 0.00 | 0.00 | 1 | 1011.8 |
| 20260508005227 | 13 | 21 | 1.6 | 8.0 | 0.00 | 0.00 | 0.00 | 1 | 1011.7 |
| 20260508004227 | 13 | 47 | 4.8 | 11.3 | 0.00 | 0.00 | 0.00 | 1 | 1011.7 |
| 20260508003227 | 14 | 22 | 4.8 | 9.7 | 0.00 | 0.00 | 0.00 | 1 | 1011.7 |
| 20260508002227 | 13 | 330 | 1.6 | 12.9 | 0.00 | 0.00 | 0.00 | 2 | 1011.7 |
| 20260508001227 | 13 | 83 | 4.8 | 12.9 | 0.00 | 0.00 | 0.00 | 2 | 1011.7 |
| 20260507235227 | 13 | 97 | 3.2 | 12.9 | 0.00 | 0.00 | 0.00 | 1 | 1011.7 |
| 20260507234227 | 14 | 112 | 3.2 | 14.5 | 0.00 | 0.00 | 0.00 | 1 | 1011.6 |
| 20260507233231 | 14 | 31 | 4.8 | 11.3 | 0.00 | 0.00 | 0.00 | 1 | 1011.7 |
| 20260507232228 | 15 | 10 | 3.2 | 11.3 | 0.00 | 0.00 | 0.00 | 2 | 1011.7 |
| 20260507231227 | 14 | 327 | 1.6 | 6.4 | 0.00 | 0.00 | 0.00 | 3 | 1011.7 |
| 20260507230231 | 13 | 102 | 1.6 | 16.1 | 0.00 | 0.00 | 0.00 | 3 | 1011.7 |
| 20260507225229 | 13 | 51 | 6.4 | 17.7 | 0.00 | 0.00 | 0.00 | 4 | 1011.6 |
| 20260507224229 | 13 | 103 | 4.8 | 17.7 | 0.00 | 0.00 | 0.00 | 4 | 1011.7 |
| 20260507223301 | 13 | 103 | 12.9 | 19.3 | 0.00 | 0.00 | 0.00 | 4 | 1011.7 |
| 20260507223227 | 13 | 103 | 12.9 | 19.3 | 0.00 | 0.00 | 0.00 | 4 | 1011.7 |
| 20260507222227 | 13 | 109 | 9.7 | 16.1 | 0.00 | 0.00 | 0.00 | 4 | 1011.8 |
| 20260507221228 | 13 | 24 | 4.8 | 12.9 | 0.00 | 0.00 | 0.00 | 6 | 1011.8 |
| 20260507220228 | 13 | 46 | 4.8 | 14.5 | 0.00 | 0.00 | 0.00 | 4 | 1011.9 |
| 20260507215227 | 14 | 46 | 8.0 | 16.1 | 0.00 | 0.00 | 0.00 | 3 | 1012.0 |
| 20260507214227 | 13 | 134 | 3.2 | 9.7 | 0.00 | 0.00 | 0.00 | 6 | 1012.1 |
| 20260507213229 | 13 | 79 | 1.6 | 16.1 | 0.00 | 0.00 | 0.00 | 7 | 1012.1 |
| 20260507212229 | 13 | 24 | 1.6 | 9.7 | 0.00 | 0.00 | 0.00 | 6 | 1012.3 |
| 20260507211227 | 13 | 312 | 4.8 | 11.3 | 0.00 | 0.00 | 0.00 | 7 | 1012.4 |
| 20260507210227 | 14 | 37 | 4.8 | 16.1 | 0.00 | 0.00 | 0.00 | 7 | 1012.5 |
| 20260507205227 | 14 | 334 | 8.0 | 17.7 | 0.00 | 0.00 | 0.00 | 8 | 1012.4 |
| 20260507204227 | 13 | 33 | 1.6 | 12.9 | 0.00 | 0.00 | 0.00 | 8 | 1012.5 |
| 20260507203301 | 13 | 72 | 1.6 | 14.5 | 0.00 | 0.00 | 0.00 | 9 | 1012.6 |
| 20260507203228 | 13 | 72 | 1.6 | 14.5 | 0.00 | 0.00 | 0.00 | 9 | 1012.6 |
| 20260507202227 | 13 | 68 | 3.2 | 14.5 | 0.00 | 0.00 | 0.00 | 9 | 1012.7 |
| 20260507201227 | 13 | 83 | 4.8 | 17.7 | 0.00 | 0.00 | 0.00 | 9 | 1012.7 |
| 20260507200227 | 12 | 73 | 8.0 | 16.1 | 0.00 | 0.00 | 0.00 | 9 | 1012.7 |
| 20260507195229 | 12 | 100 | 3.2 | 17.7 | 0.00 | 0.00 | 0.00 | 9 | 1012.7 |
| 20260507194301 | 13 | 66 | 8.0 | 17.7 | 0.00 | 0.00 | 0.00 | 10 | 1012.7 |
| 20260507194227 | 13 | 66 | 8.0 | 17.7 | 0.00 | 0.00 | 0.00 | 10 | 1012.7 |
| 20260507193555 | 13 | 351 | 1.6 | 14.5 | 0.00 | 0.00 | 0.00 | 8 | 1012.9 |
| 20260507193227 | 13 | 351 | 1.6 | 14.5 | 0.00 | 0.00 | 0.00 | 8 | 1012.9 |
| 20260507192227 | 13 | 0 | 0.0 | 14.5 | 0.00 | 0.00 | 0.00 | 10 | 1013.0 |
| 20260507190426 | 13 | 219 | 1.6 | 9.7 | 0.00 | 0.00 | 0.00 | 10 | 1013.1 |
| 20260507185427 | 12 | 81 | 6.4 | 11.3 | 0.00 | 0.00 | 0.00 | 10 | 1013.2 |
| 20260507184427 | 12 | 123 | 12.9 | 19.3 | 0.00 | 0.00 | 0.00 | 8 | 1013.2 |
| 20260507183426 | 12 | 0 | 0.0 | 17.7 | 0.00 | 0.00 | 0.00 | 10 | 1013.1 |
| 20260507182426 | 12 | 96 | 4.8 | 14.5 | 0.00 | 0.00 | 0.00 | 11 | 1013.2 |
| 20260507181426 | 12 | 79 | 4.8 | 11.3 | 0.00 | 0.00 | 0.00 | 12 | 1013.2 |
| 20260507180426 | 11 | 66 | 4.8 | 14.5 | 0.00 | 0.00 | 0.00 | 12 | 1013.2 |
| 20260507175426 | 11 | 67 | 4.8 | 19.3 | 0.00 | 0.00 | 0.00 | 12 | 1013.2 |
| 20260507174426 | 11 | 60 | 4.8 | 17.7 | 0.00 | 0.00 | 0.00 | 15 | 1013.2 |
| 20260507173427 | 11 | 51 | 11.3 | 17.7 | 0.00 | 0.00 | 0.00 | 10 | 1013.2 |
| 20260507172426 | 10 | 71 | 6.4 | 17.7 | 0.00 | 0.00 | 0.00 | 13 | 1013.2 |
| 20260507171426 | 10 | 65 | 6.4 | 17.7 | 0.00 | 0.00 | 0.00 | 14 | 1013.2 |
| 20260507170426 | 10 | 73 | 8.0 | 20.9 | 0.00 | 0.00 | 0.00 | 11 | 1013.2 |
| 20260507165426 | 10 | 73 | 8.0 | 22.5 | 0.00 | 0.00 | 0.00 | 12 | 1013.2 |
| 20260507164503 | 10 | 74 | 9.7 | 19.3 | 0.00 | 0.00 | 0.00 | 13 | 1013.1 |
| 20260507164426 | 10 | 74 | 9.7 | 19.3 | 0.00 | 0.00 | 0.00 | 13 | 1013.1 |
| 20260507163426 | 10 | 56 | 9.7 | 22.5 | 0.00 | 0.00 | 0.00 | 13 | 1013.0 |
| 20260507161929 | 10 | 64 | 8.0 | 22.5 | 0.00 | 0.00 | 0.00 | 13 | 1013.1 |
| 20260507160928 | 9 | 65 | 12.9 | 24.1 | 0.00 | 0.00 | 0.00 | 13 | 1013.1 |
| 20260507155928 | 9 | 68 | 12.9 | 27.4 | 0.00 | 0.00 | 0.00 | 12 | 1013.1 |
| 20260507154928 | 9 | 63 | 16.1 | 25.7 | 0.00 | 0.00 | 0.00 | 11 | 1013.1 |
| 20260507153928 | 9 | 66 | 12.9 | 27.4 | 0.00 | 0.00 | 0.00 | 15 | 1013.0 |
| 20260507152928 | 8 | 67 | 12.9 | 25.7 | 0.00 | 0.00 | 0.00 | 18 | 1012.9 |
| 20260507151928 | 8 | 69 | 14.5 | 33.8 | 0.00 | 0.00 | 0.00 | 16 | 1012.9 |
| 20260507150928 | 8 | 60 | 14.5 | 27.4 | 0.00 | 0.00 | 0.00 | 19 | 1012.9 |
| 20260507145927 | 8 | 66 | 16.1 | 25.7 | 0.00 | 0.00 | 0.00 | 21 | 1012.9 |
| 20260507144928 | 8 | 66 | 16.1 | 25.7 | 0.00 | 0.00 | 0.00 | 22 | 1012.9 |
| 20260507143928 | 8 | 71 | 14.5 | 25.7 | 0.00 | 0.00 | 0.00 | 23 | 1012.9 |
| 20260507142928 | 8 | 71 | 16.1 | 27.4 | 0.00 | 0.00 | 0.00 | 24 | 1012.8 |
| 20260507141928 | 8 | 64 | 16.1 | 25.7 | 0.00 | 0.00 | 0.00 | 26 | 1012.9 |
| 20260507140928 | 7 | 68 | 14.5 | 25.7 | 0.00 | 0.00 | 0.00 | 28 | 1012.8 |
| 20260507135928 | 7 | 67 | 16.1 | 30.6 | 0.00 | 0.00 | 0.00 | 29 | 1012.8 |
| 20260507134928 | 7 | 68 | 14.5 | 32.2 | 0.00 | 0.00 | 0.00 | 31 | 1012.7 |
| 20260507133927 | 7 | 67 | 16.1 | 25.7 | 0.00 | 0.00 | 0.00 | 31 | 1012.6 |
| 20260507132928 | 7 | 65 | 16.1 | 24.1 | 0.00 | 0.00 | 0.00 | 31 | 1012.6 |
| 20260507131930 | 7 | 64 | 16.1 | 30.6 | 0.00 | 0.00 | 0.00 | 32 | 1012.5 |
| 20260507130928 | 6 | 60 | 17.7 | 29.0 | 0.00 | 0.00 | 0.00 | 32 | 1012.4 |
| 20260507125928 | 6 | 60 | 14.5 | 27.4 | 0.00 | 0.00 | 0.00 | 33 | 1012.4 |
| 20260507124928 | 6 | 65 | 17.7 | 29.0 | 0.00 | 0.00 | 0.00 | 33 | 1012.4 |
| 20260507123928 | 6 | 66 | 14.5 | 24.1 | 0.00 | 0.00 | 0.00 | 33 | 1012.3 |
| 20260507122928 | 6 | 65 | 14.5 | 25.7 | 0.00 | 0.00 | 0.00 | 33 | 1012.3 |
| 20260507121928 | 6 | 62 | 16.1 | 24.1 | 0.00 | 0.00 | 0.00 | 33 | 1012.4 |
| 20260507120928 | 6 | 66 | 12.9 | 20.9 | 0.00 | 0.00 | 0.00 | 33 | 1012.3 |
| 20260507115928 | 6 | 70 | 12.9 | 22.5 | 0.00 | 0.00 | 0.00 | 32 | 1012.3 |
| 20260507114928 | 5 | 65 | 12.9 | 22.5 | 0.00 | 0.00 | 0.00 | 33 | 1012.3 |
| 20260507113928 | 5 | 58 | 12.9 | 20.9 | 0.00 | 0.00 | 0.00 | 33 | 1012.3 |
| 20260507112928 | 5 | 57 | 12.9 | 19.3 | 0.00 | 0.00 | 0.00 | 34 | 1012.4 |
| 20260507111928 | 5 | 56 | 12.9 | 20.9 | 0.00 | 0.00 | 0.00 | 35 | 1012.4 |
| 20260507110928 | 5 | 56 | 11.3 | 20.9 | 0.00 | 0.00 | 0.00 | 36 | 1012.4 |
| 20260507105928 | 5 | 55 | 12.9 | 24.1 | 0.00 | 0.00 | 0.00 | 34 | 1012.4 |
| 20260507104928 | 5 | 60 | 14.5 | 22.5 | 0.00 | 0.00 | 0.00 | 34 | 1012.4 |
| 20260507103928 | 6 | 59 | 14.5 | 20.9 | 0.00 | 0.00 | 0.00 | 34 | 1012.4 |
| 20260507102928 | 6 | 60 | 14.5 | 27.4 | 0.00 | 0.00 | 0.00 | 34 | 1012.4 |
| 20260507101928 | 6 | 58 | 16.1 | 25.7 | 0.00 | 0.00 | 0.00 | 34 | 1012.4 |
| 20260507100929 | 6 | 55 | 14.5 | 24.1 | 0.00 | 0.00 | 0.00 | 34 | 1012.5 |
| 20260507095928 | 6 | 60 | 14.5 | 25.7 | 0.00 | 0.00 | 0.00 | 34 | 1012.5 |
| 20260507094928 | 6 | 54 | 14.5 | 20.9 | 0.00 | 0.00 | 0.00 | 34 | 1012.6 |
| 20260507093928 | 6 | 58 | 14.5 | 22.5 | 0.00 | 0.00 | 0.00 | 34 | 1012.6 |
| 20260507092928 | 6 | 56 | 12.9 | 20.9 | 0.00 | 0.00 | 0.00 | 34 | 1012.6 |
| 20260507091928 | 6 | 56 | 11.3 | 20.9 | 0.00 | 0.00 | 0.00 | 34 | 1012.7 |
| 20260507090928 | 6 | 58 | 11.3 | 17.7 | 0.00 | 0.00 | 0.00 | 34 | 1012.7 |
| 20260507085928 | 6 | 54 | 9.7 | 16.1 | 0.00 | 0.00 | 0.00 | 34 | 1012.8 |
| 20260507084928 | 6 | 49 | 8.0 | 16.1 | 0.00 | 0.00 | 0.00 | 34 | 1013.0 |
| 20260507083928 | 6 | 54 | 9.7 | 16.1 | 0.00 | 0.00 | 0.00 | 35 | 1013.1 |
| 20260507082927 | 5 | 48 | 8.0 | 14.5 | 0.00 | 0.00 | 0.00 | 35 | 1013.2 |
| 20260507081928 | 5 | 56 | 9.7 | 16.1 | 0.00 | 0.00 | 0.00 | 35 | 1013.2 |
| 20260507080928 | 6 | 54 | 8.0 | 14.5 | 0.00 | 0.00 | 0.00 | 34 | 1013.3 |
| 20260507080014 | 6 | 51 | 6.4 | 11.3 | 0.00 | 0.00 | 0.00 | 34 | 1013.4 |
| 20260507075928 | 6 | 51 | 6.4 | 11.3 | 0.00 | 0.00 | 0.00 | 34 | 1013.4 |
| 20260507074928 | 6 | 52 | 6.4 | 11.3 | 0.00 | 0.00 | 0.00 | 31 | 1013.4 |
| 20260507073928 | 7 | 176 | 1.6 | 3.2 | 0.00 | 0.00 | 0.00 | 29 | 1013.4 |
| 20260507072928 | 7 | 176 | 1.6 | 6.4 | 0.00 | 0.00 | 0.00 | 29 | 1013.4 |
| 20260507071928 | 7 | 0 | 0.0 | 6.4 | 0.00 | 0.00 | 0.00 | 29 | 1013.4 |
| 20260507070928 | 7 | 182 | 4.8 | 8.0 | 0.00 | 0.00 | 0.00 | 30 | 1013.3 |
| 20260507065928 | 7 | 0 | 0.0 | 4.8 | 0.00 | 0.00 | 0.00 | 30 | 1013.4 |
| 20260507064933 | 7 | 140 | 1.6 | 4.8 | 0.00 | 0.00 | 0.00 | 30 | 1013.4 |
| 20260507063928 | 7 | 0 | 0.0 | 3.2 | 0.00 | 0.00 | 0.00 | 29 | 1013.4 |
| 20260507063022 | 7 | 0 | 0.0 | 6.4 | 0.00 | 0.00 | 0.00 | 29 | 1013.4 |
| 20260507062928 | 7 | 0 | 0.0 | 6.4 | 0.00 | 0.00 | 0.00 | 29 | 1013.4 |
| 20260507061929 | 7 | 140 | 3.2 | 6.4 | 0.00 | 0.00 | 0.00 | 28 | 1013.4 |
| 20260507060930 | 7 | 140 | 3.2 | 6.4 | 0.00 | 0.00 | 0.00 | 28 | 1013.4 |
| 20260507055929 | 7 | 0 | 0.0 | 3.2 | 0.00 | 0.00 | 0.00 | 28 | 1013.4 |
| 20260507054928 | 7 | 140 | 1.6 | 6.4 | 0.00 | 0.00 | 0.00 | 28 | 1013.4 |